Current Weather Conditions: station 62114

sailwx.info

See reports from other nearby stations

no recent reports received from weather station ID 62114

Tides Pressure Air temp Water temp Dewpoint Dewpoint depression Visibility Wind speed Wind direction Waves Ship positions
date/time (UTC)wind fromknots sea level pressurealtimeterstation pressurevisibilityair tempwater tempwave heightnotes
2014-Oct-25 22:00 200 33 11.7
2014-Oct-25 21:00 200 31 11.8
2014-Oct-25 20:00 200 32 11.8
2014-Oct-25 19:00 200 32 11.9
2014-Oct-25 18:00 200 31 12.0
2014-Oct-25 17:00 200 30 11.8
2014-Oct-25 16:00 190 29 11.9
2014-Oct-25 15:00 210 32 12.1
2014-Oct-25 14:00 200 27 12.0
2014-Oct-25 13:00 200 30 12.1
2014-Oct-25 12:00 200 31 12.2
2014-Oct-25 11:00 200 30 11.6
2014-Oct-25 10:00 190 29 11.1
2014-Oct-25 09:00 190 29 11.1
2014-Oct-25 08:00 200 27 10.9
2014-Oct-25 07:00 200 26 11.0
2014-Oct-25 06:00 200 24 10.8
2014-Oct-25 05:00 200 24 10.8
2014-Oct-25 04:00 210 23 10.7
2014-Oct-25 03:00 200 23 10.7
2014-Oct-25 02:00 200 20 10.7
2014-Oct-25 01:00 200 20 10.7
2014-Oct-25 00:00 210 22 10.8
2014-Oct-24 23:00 210 22 10.8
2014-Oct-24 22:00 210 23 10.8
2014-Oct-24 21:00 210 23 10.8
2014-Oct-24 20:00 210 23 10.8
2014-Oct-24 19:00 210 22 10.9
2014-Oct-24 18:00 200 20 11.0
2014-Oct-24 17:00 200 20 10.9
2014-Oct-24 16:00 200 20 10.7
2014-Oct-24 15:00 210 20 10.6
2014-Oct-24 14:00 200 20 10.7
2014-Oct-24 13:00 200 22 10.7
2014-Oct-24 12:00 210 20 10.7
2014-Oct-24 11:00 210 18 10.9
2014-Oct-24 10:00 210 16 10.9
2014-Oct-24 09:00 210 14 11.0
2014-Oct-24 08:00 220 15 10.8
2014-Oct-24 07:00 220 15 11.0
2014-Oct-24 06:00 220 16 11.2
2014-Oct-24 05:00 240 20 11.4
2014-Oct-24 04:00 230 17 11.6
2014-Oct-24 03:00 240 19 12.0
2014-Oct-24 02:00 230 19 12.0
2014-Oct-24 01:00
2014-Oct-24 00:00 220 20 12.2